{"data":{"norad_id":59154,"intl_designator":"2024-044C","name":"STARLINK-31270","alt_names":[],"object_type":"PAYLOAD","status":"ACTIVE","operator":null,"country":"US","launch_date":"2024-03-04","launch_site_code":"AFETR","launch_vehicle":null,"mission":null,"orbit_class":"UNKNOWN","rcs_meters":null,"size_class":null,"mass_kg":null,"dimensions":null,"purposes":["comms"],"wikipedia_slug":null,"has_3d_model":false,"image_url":null,"decayed_at":null,"tle_current":{"epoch":"2026-09-20T04:59:39.479712Z","epoch_age_seconds":184090,"freshness":"STALE","line1":"1 59154U 24044C   26263.20809583 -.00000111  00000+0  54854-5 0  9996","line2":"2 59154  43.0016  88.5771 0001204 272.8803  87.1911 15.27576565143344","mean_motion":15.27576565,"eccentricity":0.0001204,"inclination_deg":43.0016,"raan_deg":88.5771,"arg_perigee_deg":272.8803,"mean_anomaly_deg":87.1911,"bstar":5.4854e-6,"rev_number":14334,"period_min":94.266960687499,"perigee_km":482.23329364031,"apogee_km":483.88546972902,"semimajor_km":6861.1963816847,"source":"CELESTRAK","updated_at":"2026-09-21T09:00:34.038323Z"}}}